Regional Weather Roundup
Issued by NWS

Home | Current Version | Previous Version | Graphics & Text | Print | Product List | Glossary On
Versions: 1 2 3 4 5 6 7 8 9 10 11 12 13 14 15 16 17 18 19 20 21 22 23 24 25 26 27 28 29 30 31 32 33 34 35 36 37 38 39 40 41 42 43 44 45 46 47 48 49 50
000
ASUS43 KBIS 180410
RWRND

NORTH DAKOTA REGIONAL WEATHER ROUNDUP
NATIONAL WEATHER SERVICE BISMARCK ND
1000 PM CST FRI NOV 17 2017

NOTE: "FAIR" INDICATES FEW OR NO CLOUDS BELOW 12,000 FEET WITH NO
SIGNIFICANT WEATHER AND/OR OBSTRUCTIONS TO VISIBILITY.


NDZ001>003-009>011-017-180500-
NORTHWEST NORTH DAKOTA

CITY           SKY/WX    TMP DP  RH WIND       PRES   REMARKS
WILLISTON      CLEAR     16  10  77 N14       29.84R WCI   2
MINOT          CLOUDY    17  12  80 NW10      29.79R WCI   5
$$

NDZ018>021-031>035-040>046-180500-
SOUTHWEST NORTH DAKOTA

CITY           SKY/WX    TMP DP  RH WIND       PRES   REMARKS
BISMARCK       PTCLDY    26  23  88 CALM      29.78R
DICKINSON      CLEAR     26  25  96 W7        29.75R WCI  18
GARRISON         N/A     22  18  85 N5        29.77R WCI  16
HETTINGER ARPT CLOUDY    26  23  88 NW5       29.78R
$$

NDZ004>008-012>016-024-026-027-054-180500-
NORTHEAST NORTH DAKOTA

CITY           SKY/WX    TMP DP  RH WIND       PRES   REMARKS
GRAND FORKS    CLOUDY    16  13  88 NW7       29.79F WCI   6
GRND FRKS AFB  PTCLDY    14  11  88 N7        29.79S WCI   4
DEVILS LAKE    CLOUDY    14  11  87 W6        29.80R WCI   5
$$

NDZ022-023-025-028>030-036>039-047>053-180500-
SOUTHEAST NORTH DAKOTA

CITY           SKY/WX    TMP DP  RH WIND       PRES   REMARKS
FARGO          CLOUDY    24  17  74 N8        29.79R WCI  15
JAMESTOWN      CLOUDY    19  16  88 CALM      29.78R
$$





USA.gov is the U.S. government's official web portal to all federal, state and local government web resources and services.